Location: Redwood City
(37.4850°N, 122.2350°W)
Time: 08:57:38
(UTC-07:00)

ISS - Visible Passes

Search period start: 25 July 2014 00:00
Search period end: 04 August 2014 00:00
Orbit: 411 x 420 km, 51.6° (Epoch: 25 July)

Date Brightness Start Highest point End Pass type
(mag) Time Alt. Az. Time Alt. Az. Time Alt. Az.
25 Jul 0.1 02:20:05 13° NNE 02:20:05 13° NNE 02:20:32 10° NNE visible
26 Jul -0.2 03:05:48 12° NNW 03:06:03 12° NNW 03:07:18 10° N visible
27 Jul 0.2 02:18:40 12° N 02:18:40 12° N 02:19:06 10° NNE visible
27 Jul -0.1 05:31:48 10° N 05:33:01 12° NNE 05:34:14 10° NE visible
29 Jul -0.4 05:30:08 10° NNW 05:32:41 20° NNE 05:35:14 10° ENE visible
30 Jul -0.1 04:41:49 10° NNW 04:43:45 14° NNE 04:45:41 10° ENE visible
31 Jul 0.2 03:53:46 10° N 03:54:46 11° NNE 03:55:46 10° NE visible
31 Jul -1.9 05:28:57 10° NW 05:32:12 43° NE 05:35:25 10° ESE visible
01 Aug -1.0 04:40:28 10° NNW 04:43:24 27° NNE 04:46:19 10° E visible
01 Aug -2.0 21:21:53 10° S 21:24:09 21° SE 21:24:09 21° SE visible
02 Aug -0.4 03:52:05 10° NNW 03:54:33 19° NNE 03:57:00 10° ENE visible
02 Aug -3.3 05:28:12 10° WNW 05:31:32 61° SW 05:34:50 10° SE visible
02 Aug -2.8 22:09:02 10° WSW 22:12:20 61° NW 22:15:11 13° NE visible
02 Aug 0.2 23:48:03 10° NW 23:48:20 11° NW 23:48:20 11° NW visible
03 Aug 0.1 03:03:51 10° N 03:05:39 14° NNE 03:07:26 10° NE visible
03 Aug -3.0 04:39:31 10° NW 04:42:53 71° NE 04:46:14 10° SE visible
03 Aug -3.4 21:20:23 10° SW 21:23:41 71° SE 21:27:01 10° NE visible
03 Aug -0.3 22:58:26 10° WNW 23:00:43 17° NNW 23:03:01 10° NNE visible
